Regional Weather Roundup
Issued by NWS

Home | Current Version | Previous Version | Graphics & Text | Print | Product List | Glossary On
Versions: 1 2 3 4 5 6 7 8 9 10 11 12 13 14 15 16 17 18 19 20 21 22 23 24 25 26 27
000
ASUS45 KCYS 191510
RWRWY

WYOMING REGIONAL WEATHER ROUNDUP
NATIONAL WEATHER SERVICE CHEYENNE WY
900 AM MDT SAT AUG 19 2017

NOTE:  "FAIR" INDICATES FEW OR NO CLOUDS BELOW 12,000 FEET
WITH NO SIGNIFICANT WEATHER AND/OR OBSTRUCTIONS TO VISIBILITY.

WYZ001-191600-
YELLOWSTONE NATIONAL PARK

CITY           SKY/WX    TMP DP  RH WIND       PRES   REMARKS
LK YELLOWSTONE   N/A     52  46  80 CALM      30.30S
W YELLOWSTONE  NOT AVBL

$$
WYZ002>013-054>058-071-098>099-191600-
NORTHERN WYOMING

CITY           SKY/WX    TMP DP  RH WIND       PRES   REMARKS
JACKSON        FAIR      51  33  50 CALM      30.25S
CODY           FAIR      75  43  31 CALM      30.08R
GREYBULL       FAIR      64  40  41 E5        30.00R
WORLAND        FAIR      66  37  34 S3        30.01S
SHERIDAN       CLOUDY    75  38  26 W3        29.99S HAZE
BUFFALO        PTSUNNY   79  27  14 NW16G25   30.04F HAZE
GILLETTE       FAIR      77  35  21 W17       29.98R
HULETT         FAIR      73  46  38 W7        29.98R
NEWCASTLE      FAIR      70  41  35 CALM      29.99R

$$
WYZ014>020-022>026-101>103-191600-
CENTRAL WYOMING

CITY           SKY/WX    TMP DP  RH WIND       PRES   REMARKS
BIG PINEY      FAIR      52  35  52 CALM      30.27S
PINEDALE       FAIR      54  34  47 NW5       30.27S
DUBOIS         FAIR      59  28  31 W12       30.23F
LANDER           N/A    N/A N/A N/A MISG      30.10S
RIVERTON       FAIR      68  34  28 W10       30.10S
CASPER         FAIR      74  33  22 SW16      30.08S
DOUGLAS        FAIR      67  45  45 NW7       30.05S

$$
WYZ021-027>030-104>119-191600-
SOUTHERN WYOMING

CITY           SKY/WX    TMP DP  RH WIND       PRES   REMARKS
EVANSTON         N/A     61  31  32 S6        30.28S
KEMMERER         N/A     59  32  36 N5        30.30R
FORT BRIDGER   FAIR      68  25  20 SW5       30.30R
ROCK SPRINGS   FAIR      64  30  27 VRB3      30.26R
RAWLINS        FAIR      67  31  26 VRB6      30.23S
SARATOGA       FAIR      64  34  32 S10       30.27S
LARAMIE        FAIR      69  35  28 W6        30.24S
CHEYENNE       FAIR      76  39  26 W13       30.15S
TORRINGTON     FAIR      69  46  43 N3        29.98F
PINE BLUFFS    FAIR      70  46  43 SW5       30.08S

$$




USA.gov is the U.S. government's official web portal to all federal, state and local government web resources and services.